Regional Weather Roundup
Issued by NWS

Home | Current Version | Previous Version | Graphics & Text | Print | Product List | Glossary On
Versions: 1 2 3 4 5 6 7 8 9 10 11 12 13 14 15 16 17 18 19 20 21 22 23 24 25 26 27 28 29 30 31 32 33 34 35 36 37 38 39 40 41 42 43 44 45 46 47 48 49 50
000
ASUS45 KABQ 240101
RWRNM
WEATHER ROUNDUP FOR NEW MEXICO
NATIONAL WEATHER SERVICE ALBUQUERQUE NM
700 PM MDT WED JUL 23 2014

NOTE: "FAIR" MEANS FEW OR NO CLOUDS BELOW 12,000 FEET AGL WITH NO
       SIGNIFICANT WEATHER OR OBSTRUCTIONS TO VISION.

      THIS PRODUCT IS RELEASED AS TWO VERSIONS.  ONE VERSION NEAR
      THE TOP OF THE HOUR CONTAINING PRELIMINARY DATA FROM ALBUQUERQUE
      AND OTHER STATIONS.  A FINAL VERSION WITH ADDITIONAL DATA IS
      ISSUED ABOUT 10 MINUTES AFTER THE HOUR.

NMZ501-503-504-510>518-240200-
NORTHWEST PLATEAU/NORTHCENTRAL MOUNTAINS

CITY           SKY/WX    TMP DP  RH WIND       PRES   REMARKS
FARMINGTON     PTSUNNY   94  43  17 S17G24    30.18S
LOS ALAMOS     PTSUNNY   75  47  37 S6        30.46R
SANTA FE       PTSUNNY   77  54  44 SE7       30.37S
TAOS           CLOUDY    70  52  52 S7        30.45S
ANGEL FIRE     FAIR      69  50  50 S10       30.55F

$$
NMZ402-403-502-505>509-240200-
WESTCENTRAL MOUNTAINS/SOUTHWEST MOUNTAINS

CITY           SKY/WX    TMP DP  RH WIND       PRES   REMARKS
GALLUP         LGT RAIN  69  59  70 S10       30.36R
GRANTS         PTSUNNY   80  48  32 S14       30.35S

$$
NMZ407-409-411-412-240200-
SOUTHERN DESERTS

CITY           SKY/WX    TMP DP  RH WIND       PRES   REMARKS
LORDSBURG      MOCLDY    91  45  19 E12       30.14S
DEMING         MOSUNNY   92  47  21 SE13      30.14F
LAS CRUCES     SUNNY     91  42  17 SE13G21   30.18S
HOLLOMAN AFB   MOSUNNY   93  46  20 SE16      30.13S
T OR C         LGT RAIN  87  52  29 N5        30.20F

$$
NMZ519>523-240200-
CENTRAL VALLEYS/CENTRAL HIGHLANDS

CITY           SKY/WX    TMP DP  RH WIND       PRES   REMARKS
ALBUQUERQUE    PTSUNNY   89  48  24 SE8       30.27S
DOUBLE EAGLE   PTSUNNY   84  52  32 E5        30.31F
CLINES CORNERS CLOUDY    76  47  35 SE10      30.42S
BELEN          FAIR      85  50  29 S12       30.25S
SOCORRO        FAIR      89  45  22 S7        30.22F

$$
NMZ524>526-539-540-240200-
SOUTHCENTRAL MOUNTAINS

CITY           SKY/WX    TMP DP  RH WIND       PRES   REMARKS
RUIDOSO        NOT AVBL

$$
NMZ527>531-240200-
NORTHEAST HIGHLANDS/NORTHEAST PLAINS

CITY           SKY/WX    TMP DP  RH WIND       PRES   REMARKS
LAS VEGAS      PTSUNNY   76  45  33 SE12      30.43S
RATON          NOT AVBL
CLAYTON        MOSUNNY   89  43  20 S21       30.26F

$$
NMZ532>537-240200-
EASTCENTRAL PLAINS

CITY           SKY/WX    TMP DP  RH WIND       PRES   REMARKS
TUCUMCARI      MOSUNNY   93  48  21 S13       30.18F
CANNON AFB     SUNNY     88  55  32 S8        30.23S
CLOVIS AIRPORT NOT AVBL

$$
NMZ028-029-538-240200-
SOUTHEAST PLAINS

CITY           SKY/WX    TMP DP  RH WIND       PRES   REMARKS
ROSWELL        SUNNY     95  47  19 SE9       30.14F
ARTESIA        SUNNY     93  46  20 E9        30.13S
CARLSBAD       MOSUNNY   97  43  15 SE10      30.09F
HOBBS          MOSUNNY   91  48  22 E13G22    30.16S


$$



USA.gov is the U.S. government's official web portal to all federal, state and local government web resources and services.